Location: Beverley
(50.2667°N, 107.9667°W)
Time: 23:38:15
(UTC+00:00)

Envisat - Pass Details

Date: 24 January 2022
Orbit: 764 x 765 km, 98.2° (Epoch: 22 May)

Event Time Altitude Azimuth Distance (km) Brightness Sun altitude
Rises 13:50:24 0° 4° (N) 3,243 6.1 -10.5°
Reaches altitude 10° 13:53:18 10° 347° (NNW) 2,313 5.2 -10.1°
Maximum altitude 13:56:48 19° 303° (WNW) 1,761 4.3 -9.5°
Drops below altitude 10° 14:00:18 10° 260° (W) 2,303 5.0 -9.0°
Sets 14:03:11 0° 243° (WSW) 3,226 5.8 -8.6°
